• Join FlightAware (Why Join?)
  • Login
  • US Flag 
09:35AM EDT


 

Airport Tracker/Info


-or-


 

Live Flight TrackerFlight Track Log ✈ EJA941 ✈ 27-Apr-2013 ✈ KTEB - KVGC

Flight Track Log - Related Links

Times and Time Zones

All times are in EDT time to prevent confusion due to time zone crossing. See the EJA941 flight status page for this flight to view local times or setup timezone preferences in your user account.

Time Position Orientation Groundspeed Altitude Reporting Facility
EDT Latitude Longitude Course Direction KTS MPH feet Rate Location/Type
08:40AM 40.8833 -74.0333 323° Northwest 190 219 1,900  Level New York TRACON
08:41AM 40.9167 -74.0667 323° Northwest 214 246 3,700 1,020 Climbing New York TRACON
08:42AM 40.9000 -74.1500 255° West 258 297 4,000 1,620 Climbing New York TRACON
08:43AM 40.8833 -74.2500 258° West 262 302 7,000 3,000 Climbing New York TRACON
08:44AM 40.9167 -74.3167 304° West 280 322 10,000 1,260 Climbing New York TRACON
08:46AM 41.0350 -74.3994 332° Northwest 361 415 10,100  Climbing New York Center
08:47AM 41.1456 -74.4578 338° Northwest 377 434 10,100 660 Level New York Center
08:48AM 41.2358 -74.5039 339° North 383 441 11,500 960 Climbing New York Center
08:49AM 41.3467 -74.5597 339° North 388 447 12,000 240 Climbing New York Center
08:50AM 41.4256 -74.6278 327° Northwest 377 434 12,000  Level New York Center
08:51AM 41.4903 -74.7508 305° West 377 434 12,000  Level New York Center
08:52AM 41.5428 -74.8564 304° West 372 428 12,000  Level New York Center
08:53AM 41.6167 -74.9525 316° Northwest 373 429 12,000  Level New York Center
08:54AM 41.7592 -75.0647 330° Northwest 368 423 12,000  Level Boston Center
08:55AM 41.8553 -75.1439 328° Northwest 374 430 12,000  Level Boston Center
08:56AM 41.9453 -75.2175 329° Northwest 374 430 12,000  Level Boston Center
08:57AM 42.0331 -75.2914 328° Northwest 374 430 12,000  Level Boston Center
08:58AM 42.1342 -75.3378 341° North 374 430 12,000  Level Boston Center
08:59AM 42.2356 -75.3678 348° North 374 430 12,000 -420 Level Boston Center
09:00AM 42.3222 -75.4000 345° North 374 430 11,200 -1,140 Descending Boston Center
09:01AM 42.4008 -75.4233 348° North 332 382 9,800 -1,680 Descending Boston Center
09:02AM 42.4753 -75.4467 347° North 293 337 7,900 -2,040 Descending Boston Center
09:03AM 42.5289 -75.4689 343° North 259 298 6,400 -1,800 Descending Boston Center
09:03AM 42.5436 -75.4669 North 270 311 6,100 -900 Descending Boston Center
09:04AM 42.5931 -75.4889 342° North 231 266 5,500 -840 Descending Boston Center
09:04AM 42.6056 -75.4839 16° North 244 281 5,300 -540 Descending Boston Center
09:05AM 42.6425 -75.5028 339° North 173 199 5,000 -300 Descending Boston Center
09:05AM 42.6675 -75.5039 358° North 214 246 5,000  Level Boston Center